GW3904 Weather Reports


Display with metric or nautical units.
time (UTC)temp
F
wind
direction
speed
MPH
gust
MPH
rain 1hr
in
rain 24hr
in
rain mn
in
humidity
%
barometer
mb
20260906111338 77 240 0.0 0.0 0.00 0.00 0.00 99 1010.3
20260906110833 77 240 0.0 0.0 0.00 0.00 0.00 99 1010.3
20260906110329 77 241 0.0 0.0 0.00 0.00 0.00 99 1010.4
20260906105827 77 241 0.0 0.0 0.00 0.00 0.00 99 1010.2
20260906105323 77 241 0.0 0.0 0.00 0.00 0.00 99 1010.1
20260906104819 77 241 0.0 0.0 0.00 0.00 0.00 99 1010.2
20260906104318 77 242 0.0 0.0 0.00 0.00 0.00 99 1010.1
20260906103816 77 242 0.0 0.0 0.00 0.00 0.00 99 1010.0
20260906103315 77 249 0.0 0.0 0.00 0.00 0.00 99 1010.2
20260906102811 77 249 0.0 0.0 0.00 0.00 0.00 99 1009.9
20260906102310 78 249 0.0 0.0 0.00 0.00 0.00 99 1009.9
20260906101805 78 249 0.0 0.0 0.00 0.00 0.00 99 1010.1
20260906101300 78 249 0.0 0.0 0.00 0.00 0.00 99 1009.9
20260906100756 78 249 0.0 0.0 0.00 0.00 0.00 99 1010.2
20260906100255 78 249 0.0 0.0 0.00 0.00 0.00 99 1010.0
20260906095750 78 249 0.0 0.0 0.00 0.00 0.00 99 1009.8
20260906095246 78 249 0.0 0.0 0.00 0.00 0.00 99 1009.7
20260906094745 78 249 0.0 0.0 0.00 0.00 0.00 99 1010.0
20260906094240 78 249 0.0 0.0 0.00 0.00 0.00 99 1009.9
20260906093736 78 249 0.0 0.0 0.00 0.00 0.00 99 1009.7
20260906093231 78 249 0.0 0.0 0.00 0.00 0.00 99 1009.6
20260906092727 78 248 0.0 0.0 0.00 0.00 0.00 99 1009.6
20260906092226 78 249 0.0 0.0 0.00 0.00 0.00 99 1009.7
20260906091722 78 249 0.0 0.0 0.00 0.00 0.00 99 1009.6
20260906091218 78 249 0.0 0.0 0.00 0.00 0.00 99 1009.6
20260906090715 78 249 0.0 0.0 0.00 0.00 0.00 99 1009.4
20260906090213 78 249 0.0 0.0 0.00 0.00 0.00 99 1009.6
20260906085713 78 249 0.0 0.0 0.00 0.00 0.00 99 1009.6
20260906085212 78 249 0.0 0.0 0.00 0.00 0.00 99 1009.6
20260906084706 78 252 0.0 0.0 0.00 0.00 0.00 99 1009.7
20260906084201 78 252 0.0 0.0 0.00 0.00 0.00 99 1009.8
20260906083656 78 252 0.0 0.0 0.00 0.00 0.00 99 1009.7
20260906083151 78 252 0.0 0.0 0.00 0.00 0.00 99 1009.9
20260906082646 78 252 0.0 0.0 0.00 0.00 0.00 99 1010.0
20260906082141 78 252 0.0 0.0 0.00 0.00 0.00 99 1009.7
20260906081637 78 253 0.0 0.0 0.00 0.00 0.00 99 1009.7
20260906081132 78 253 0.0 0.0 0.00 0.00 0.00 99 1009.8
20260906080628 78 253 0.0 0.0 0.00 0.00 0.00 99 1009.8
20260906080125 78 253 0.0 0.0 0.00 0.00 0.00 99 1009.6
20260906075624 78 258 0.0 0.0 0.00 0.00 0.00 99 1009.8
20260906075119 78 258 0.0 0.0 0.00 0.00 0.00 99 1009.7
20260906074614 78 257 0.0 0.0 0.00 0.00 0.00 99 1009.6
20260906074113 78 276 0.0 0.0 0.00 0.00 0.00 99 1009.6
20260906073607 78 304 0.0 0.0 0.00 0.00 0.00 99 1009.7
20260906073103 78 303 0.0 0.0 0.00 0.00 0.00 99 1009.7
20260906072559 78 304 0.0 0.0 0.00 0.00 0.00 99 1009.5
20260906072055 78 304 0.0 0.0 0.00 0.00 0.00 99 1009.9
20260906071551 78 304 0.0 0.0 0.00 0.00 0.00 99 1009.7
20260906071051 78 304 0.0 0.0 0.00 0.00 0.00 99 1009.7
20260906070547 78 304 0.0 0.0 0.00 0.00 0.00 99 1009.9
20260906070043 78 304 0.0 0.0 0.00 0.00 0.00 99 1009.8
20260906065542 78 301 0.0 0.0 0.00 0.00 0.00 99 1009.7
20260906065038 78 300 0.0 0.0 0.00 0.00 0.00 99 1009.8
20260906064534 78 300 0.0 0.0 0.00 0.00 0.00 99 1009.7
20260906064029 78 300 0.0 0.0 0.00 0.00 0.00 99 1009.9
20260906063524 78 300 0.0 0.0 0.00 0.00 0.00 99 1010.0
20260906063020 78 300 0.0 0.0 0.00 0.00 0.00 99 1009.9
20260906062515 78 300 0.0 0.0 0.00 0.00 0.00 99 1010.0
20260906062009 78 300 0.0 0.0 0.00 0.00 0.00 99 1010.1
20260906061505 78 300 0.0 0.0 0.00 0.00 0.00 99 1010.0
20260906060959 79 300 0.0 0.0 0.00 0.00 0.00 99 1010.3
20260906060456 79 300 0.0 0.0 0.00 0.00 0.00 99 1010.3
20260906055952 79 299 0.0 0.0 0.00 0.00 0.00 99 1010.4
20260906055442 79 299 0.0 0.0 0.00 0.00 0.00 99 1010.2
20260906054937 79 299 0.0 0.0 0.00 0.00 0.00 99 1010.4
20260906054432 79 299 0.0 0.0 0.00 0.00 0.00 99 1010.5
20260906053928 79 299 0.0 0.0 0.00 0.00 0.00 99 1010.5
20260906053424 79 299 0.0 0.0 0.00 0.00 0.00 99 1010.3
20260906052919 79 299 0.0 0.0 0.00 0.00 0.00 99 1010.5
20260906052415 79 275 0.0 0.0 0.00 0.00 0.00 99 1010.4
20260906051913 80 261 0.0 0.0 0.00 0.00 0.00 99 1010.3
20260906051412 80 213 0.0 0.0 0.00 0.00 0.00 99 1010.3
20260906050908 80 227 0.0 0.0 0.00 0.00 0.00 99 1010.5
20260906050403 80 234 0.0 0.0 0.00 0.00 0.00 99 1010.6
20260906045902 80 235 0.0 0.0 0.00 0.00 0.00 99 1010.6
20260906045401 80 223 0.0 1.0 0.00 0.00 0.00 99 1010.4
20260906044857 80 213 0.0 0.0 0.00 0.00 0.00 99 1010.4
20260906044357 80 243 0.0 0.0 0.00 0.00 0.00 99 1010.4
20260906043853 80 246 0.0 0.0 0.00 0.00 0.00 99 1010.7
20260906043349 80 249 0.0 0.0 0.00 0.00 0.00 99 1010.7
20260906042844 80 262 0.0 0.0 0.00 0.00 0.00 99 1010.5
20260906042343 80 253 0.0 0.0 0.00 0.00 0.00 99 1010.7
20260906041838 80 247 1.0 1.0 0.00 0.00 0.00 99 1010.5
20260906041334 80 229 1.0 1.0 0.00 0.00 0.00 99 1010.4
20260906040834 80 235 1.0 1.0 0.00 0.00 0.00 98 1010.5
20260906040329 81 195 3.0 3.0 0.00 0.00 0.00 98 1010.4
20260906035824 81 235 2.0 2.0 0.00 0.00 0.00 98 1010.6
20260906035319 81 254 1.0 1.0 0.00 0.00 0.00 98 1010.9
20260906034815 81 236 2.0 3.0 0.00 0.00 0.00 98 1011.1
20260906034314 81 196 2.0 2.0 0.00 0.00 0.00 98 1010.9
20260906033810 81 212 2.0 2.0 0.00 0.00 0.00 98 1011.1
20260906033309 81 205 2.0 3.0 0.00 0.00 0.00 98 1011.3
20260906032806 81 197 2.0 2.0 0.00 0.00 0.00 98 1011.1
20260906032301 81 180 1.0 2.0 0.00 0.00 0.00 98 1011.1
20260906031757 81 199 3.0 3.0 0.00 0.00 0.00 98 1010.8
20260906031253 81 204 3.0 3.0 0.00 0.00 0.00 98 1011.0
20260906030752 82 179 5.0 6.0 0.00 0.00 0.00 98 1011.2
20260906030247 82 203 3.0 3.0 0.00 0.00 0.00 98 1011.3
20260906025747 82 203 3.0 3.0 0.00 0.00 0.00 98 1011.4
20260906025241 82 227 2.0 3.0 0.00 0.00 0.00 98 1011.1
20260906024740 82 168 3.0 3.0 0.00 0.00 0.00 98 1011.0
20260906024239 82 193 5.0 6.0 0.00 0.00 0.00 98 1011.1
20260906023735 82 263 5.0 8.0 0.00 0.00 0.00 98 1011.1
20260906023230 82 186 4.0 5.0 0.00 0.00 0.00 98 1011.2
20260906022726 82 200 3.0 3.0 0.00 0.00 0.00 99 1011.1
20260906022221 82 192 3.0 3.0 0.00 0.00 0.00 99 1011.0
20260906021717 82 196 3.0 3.0 0.00 0.00 0.00 99 1011.1
20260906021216 82 190 3.0 3.0 0.00 0.00 0.00 98 1011.1
20260906020711 82 186 3.0 3.0 0.00 0.00 0.00 98 1011.2
20260906020206 82 161 3.0 5.0 0.00 0.00 0.00 98 1011.1
20260906015706 82 178 3.0 3.0 0.00 0.00 0.00 98 1011.1
20260906015159 82 193 3.0 5.0 0.00 0.00 0.00 98 1011.1
20260906014658 82 184 3.0 5.0 0.00 0.00 0.00 98 1011.1
20260906014154 82 208 2.0 3.0 0.00 0.00 0.00 98 1011.0
20260906013650 82 190 3.0 5.0 0.00 0.00 0.00 98 1011.0
20260906013145 82 205 2.0 3.0 0.00 0.00 0.00 97 1010.9
20260906012640 82 221 3.0 5.0 0.00 0.00 0.00 97 1010.9
20260906012139 83 191 2.0 3.0 0.00 0.00 0.00 97 1010.9
20260906011635 83 219 2.0 2.0 0.00 0.00 0.00 97 1010.9
20260906011130 83 225 3.0 3.0 0.00 0.00 0.00 97 1010.7
20260906010625 83 170 2.0 2.0 0.00 0.00 0.00 97 1010.7
20260906010122 83 189 3.0 3.0 0.00 0.00 0.00 97 1010.7
20260906005621 83 167 2.0 2.0 0.00 0.00 0.00 96 1010.5
20260906005120 83 145 5.0 6.0 0.00 0.00 0.00 96 1010.5
20260906004619 83 168 3.0 3.0 0.00 0.00 0.00 96 1010.3
20260906004114 83 228 4.0 5.0 0.00 0.00 0.00 96 1010.4
20260906003610 83 164 3.0 3.0 0.00 0.00 0.00 96 1010.5
20260906003106 83 189 2.0 2.0 0.00 0.00 0.00 95 1010.7
20260906002600 83 196 4.0 5.0 0.00 0.00 0.00 95 1010.6
20260906002055 83 183 4.0 5.0 0.00 0.00 0.00 95 1010.7
20260906001545 84 195 3.0 3.0 0.00 0.00 0.00 95 1010.7
20260906001044 84 187 3.0 3.0 0.00 0.00 0.00 94 1010.7
20260906000540 84 190 4.0 5.0 0.00 0.00 0.00 94 1010.5
20260906000035 84 234 3.0 3.0 0.00 0.00 0.00 94 1010.4
20260905235529 84 199 3.0 3.0 0.00 0.00 0.00 93 1010.4
20260905235024 84 202 3.0 3.0 0.00 0.00 0.00 93 1010.5
20260905234520 84 183 1.0 1.0 0.00 0.00 0.00 92 1010.4
20260905234014 85 160 4.0 5.0 0.00 0.00 0.00 92 1010.4
20260905233509 85 193 3.0 3.0 0.00 0.00 0.00 91 1010.5
20260905233009 85 203 2.0 2.0 0.00 0.00 0.00 90 1010.4
20260905232504 85 173 3.0 3.0 0.00 0.00 0.00 89 1010.6
20260905232000 86 147 4.0 5.0 0.00 0.00 0.00 89 1010.1
20260905231455 86 211 3.0 5.0 0.00 0.00 0.00 87 1010.4
20260905230947 86 196 3.0 5.0 0.00 0.00 0.00 86 1010.1
20260905230444 86 246 0.0 0.0 0.00 0.00 0.00 84 1009.9
20260905225937 86 246 0.0 0.0 0.00 0.00 0.00 83 1010.4
20260905225432 86 246 0.0 0.0 0.00 0.00 0.00 82 1010.2
20260905224927 87 246 0.0 0.0 0.00 0.00 0.00 81 1010.1
20260905224423 87 246 0.0 0.0 0.00 0.00 0.00 80 1010.1
20260905223916 87 246 0.0 0.0 0.00 0.00 0.00 80 1010.0
20260905223414 87 281 0.0 0.0 0.00 0.00 0.00 79 1010.1
20260905222909 88 282 0.0 0.0 0.00 0.00 0.00 79 1010.0
20260905222408 88 254 0.0 0.0 0.00 0.00 0.00 77 1010.2
20260905221904 88 234 0.0 0.0 0.00 0.00 0.00 78 1010.1
20260905221400 88 234 0.0 0.0 0.00 0.00 0.00 77 1010.3
20260905220855 89 252 0.0 0.0 0.00 0.00 0.00 76 1010.7
20260905220352 89 134 1.0 1.0 0.00 0.00 0.00 74 1010.6
20260905215851 89 253 0.0 1.0 0.00 0.00 0.00 74 1010.7
20260905215347 89 175 3.0 3.0 0.00 0.00 0.00 74 1010.8
20260905214843 89 259 0.0 0.0 0.00 0.00 0.00 76 1010.7
20260905214338 89 304 0.0 0.0 0.00 0.00 0.00 75 1010.5
20260905213833 89 311 1.0 1.0 0.00 0.00 0.00 73 1010.7
20260905213329 89 260 0.0 0.0 0.00 0.00 0.00 73 1010.5
20260905212824 89 210 0.0 1.0 0.00 0.00 0.00 73 1010.4
20260905212324 89 149 1.0 2.0 0.00 0.00 0.00 74 1010.4
20260905211819 89 274 0.0 0.0 0.00 0.00 0.00 74 1010.4
20260905211314 89 245 0.0 0.0 0.00 0.00 0.00 74 1010.5
20260905210811 89 318 0.0 1.0 0.00 0.00 0.00 74 1010.3
20260905210310 89 324 1.0 1.0 0.00 0.00 0.00 73 1010.2
20260905205809 89 278 0.0 1.0 0.00 0.00 0.00 72 1009.9
20260905205306 89 153 3.0 3.0 0.00 0.00 0.00 73 1010.3
20260905204803 89 345 0.0 0.0 0.00 0.00 0.00 74 1010.1
20260905204300 89 178 2.0 3.0 0.00 0.00 0.00 74 1009.9
20260905203758 89 282 0.0 0.0 0.00 0.00 0.00 73 1009.8
20260905203253 90 237 0.0 0.0 0.00 0.00 0.00 72 1009.8
20260905202749 90 260 2.0 3.0 0.00 0.00 0.00 73 1009.9
20260905202244 89 314 0.0 1.0 0.00 0.00 0.00 74 1009.9
20260905201740 90 338 1.0 1.0 0.00 0.00 0.00 74 1010.1
20260905201234 90 236 0.0 0.0 0.00 0.00 0.00 73 1010.1
20260905200729 90 151 3.0 3.0 0.00 0.00 0.00 73 1010.0
20260905200225 90 236 2.0 3.0 0.00 0.00 0.00 73 1010.0
20260905195723 89 159 2.0 3.0 0.00 0.00 0.00 75 1010.4
20260905195218 89 44 0.0 0.0 0.00 0.00 0.00 75 1010.5
20260905194713 89 104 0.0 1.0 0.00 0.00 0.00 75 1010.2
20260905194208 89 348 3.0 5.0 0.00 0.00 0.00 75 1010.3
20260905193702 89 334 3.0 5.0 0.00 0.00 0.00 75 1010.6
20260905193157 89 45 0.0 0.0 0.00 0.00 0.00 75 1010.6
20260905192653 89 354 2.0 2.0 0.00 0.00 0.00 74 1010.9
20260905192149 89 276 1.0 2.0 0.00 0.00 0.00 74 1011.0
20260905191648 89 0 1.0 1.0 0.00 0.00 0.00 75 1010.9
20260905191146 89 298 1.0 2.0 0.00 0.00 0.00 76 1011.0
20260905190644 89 356 3.0 3.0 0.00 0.00 0.00 76 1011.1
20260905190138 89 297 2.0 2.0 0.00 0.00 0.00 76 1011.1
20260905185637 89 336 0.0 1.0 0.00 0.00 0.00 77 1011.1
20260905185132 89 208 0.0 0.0 0.00 0.00 0.00 77 1011.1
20260905184626 89 327 0.0 1.0 0.00 0.00 0.00 78 1011.4
20260905184125 88 51 0.0 0.0 0.00 0.00 0.00 77 1011.4
20260905183624 88 276 0.0 1.0 0.00 0.00 0.00 78 1011.5
20260905183120 88 223 1.0 1.0 0.00 0.00 0.00 79 1011.4
20260905182614 87 334 0.0 0.0 0.00 0.00 0.00 80 1011.6
20260905182113 88 344 0.0 0.0 0.00 0.00 0.00 78 1011.8
20260905181608 88 70 1.0 2.0 0.00 0.00 0.00 79 1011.8
20260905181107 89 143 2.0 2.0 0.00 0.00 0.00 79 1011.9
20260905180602 88 314 1.0 2.0 0.00 0.00 0.00 79 1011.9
20260905180058 87 336 0.0 0.0 0.00 0.00 0.00 80 1012.3
20260905175556 88 350 2.0 3.0 0.00 0.00 0.00 80 1012.2
20260905175052 87 319 0.0 0.0 0.00 0.00 0.00 80 1012.3
20260905174548 88 2 0.0 1.0 0.00 0.00 0.00 81 1012.4
20260905174043 88 259 1.0 1.0 0.00 0.00 0.00 80 1012.2
20260905173540 87 75 1.0 1.0 0.00 0.00 0.00 82 1012.4
20260905173035 87 32 1.0 1.0 0.00 0.00 0.00 82 1012.4
20260905172533 87 282 0.0 0.0 0.00 0.00 0.00 82 1012.4
20260905172029 86 134 0.0 1.0 0.00 0.00 0.00 83 1012.7
20260905171525 86 75 1.0 2.0 0.00 0.00 0.00 83 1012.8
20260905171021 87 326 1.0 2.0 0.00 0.00 0.00 83 1012.8
20260905170518 86 281 0.0 0.0 0.00 0.00 0.00 85 1012.7
20260905170012 85 23 0.0 1.0 0.00 0.00 0.00 86 1012.9
20260905165507 84 257 0.0 0.0 0.00 0.00 0.00 86 1013.0
20260905164956 84 245 0.0 1.0 0.00 0.00 0.00 86 1013.3
20260905164455 84 347 1.0 2.0 0.00 0.00 0.00 87 1013.3
20260905163950 84 137 3.0 3.0 0.00 0.00 0.00 86 1013.3
20260905163447 85 31 1.0 2.0 0.00 0.00 0.00 87 1013.4
20260905162943 84 134 3.0 5.0 0.00 0.00 0.00 89 1013.8
20260905162438 84 289 1.0 1.0 0.00 0.00 0.00 89 1013.6
20260905161933 83 123 2.0 3.0 0.00 0.00 0.00 89 1013.6
20260905161432 83 284 1.0 2.0 0.00 0.00 0.00 90 1013.5
20260905160930 83 16 1.0 1.0 0.00 0.00 0.00 91 1013.8
20260905160424 82 270 1.0 2.0 0.00 0.00 0.00 92 1013.8
20260905155918 82 337 0.0 1.0 0.00 0.00 0.00 93 1013.7
20260905155413 82 328 1.0 2.0 0.00 0.00 0.00 93 1013.9
20260905154911 81 315 1.0 1.0 0.00 0.00 0.00 93 1013.9
20260905154407 82 276 0.0 0.0 0.00 0.00 0.00 93 1013.8
20260905153903 81 139 0.0 1.0 0.00 0.00 0.00 93 1013.9
20260905153359 81 359 0.0 1.0 0.00 0.00 0.00 94 1014.1
20260905152858 81 311 0.0 0.0 0.00 0.00 0.00 94 1014.3
20260905152357 81 273 1.0 1.0 0.00 0.00 0.00 94 1014.1
20260905151853 81 268 1.0 2.0 0.00 0.00 0.00 94 1014.0
20260905151349 81 196 1.0 1.0 0.00 0.00 0.00 94 1014.1
20260905150849 81 144 0.0 0.0 0.00 0.00 0.00 94 1014.2
20260905150343 80 132 2.0 2.0 0.00 0.00 0.00 94 1014.1
20260905145841 81 271 0.0 0.0 0.00 0.00 0.00 94 1014.3
20260905145340 81 179 0.0 0.0 0.00 0.00 0.00 95 1014.3
20260905144839 80 119 1.0 1.0 0.00 0.00 0.00 95 1014.3
20260905144335 80 13 1.0 2.0 0.00 0.00 0.00 95 1014.2
20260905143833 80 105 0.0 1.0 0.00 0.00 0.00 95 1014.2
20260905143328 80 326 1.0 2.0 0.00 0.00 0.00 95 1014.2
20260905142828 80 284 1.0 1.0 0.00 0.00 0.00 95 1014.2
20260905142321 80 49 1.0 1.0 0.00 0.00 0.00 95 1014.0
20260905141817 80 94 1.0 2.0 0.00 0.00 0.00 96 1014.1
20260905141313 80 149 2.0 2.0 0.00 0.00 0.00 96 1014.1
20260905140808 80 327 2.0 2.0 0.00 0.00 0.00 98 1014.0
20260905140302 79 318 0.0 1.0 0.00 0.00 0.00 99 1013.8
20260905135801 79 297 1.0 1.0 0.00 0.00 0.00 99 1014.1
20260905135258 79 289 0.0 0.0 0.00 0.00 0.00 99 1014.0
20260905134758 78 309 0.0 1.0 0.00 0.00 0.00 99 1014.0
20260905134256 78 343 1.0 2.0 0.00 0.00 0.00 99 1014.3
20260905133751 78 131 1.0 2.0 0.00 0.00 0.00 99 1014.3
20260905133247 78 280 0.0 0.0 0.00 0.00 0.00 99 1014.2
20260905132746 78 316 0.0 0.0 0.00 0.00 0.00 99 1014.1
20260905132242 77 49 0.0 0.0 0.00 0.00 0.00 99 1014.2
20260905131736 77 339 0.0 0.0 0.00 0.00 0.00 99 1014.2
20260905131232 77 265 0.0 0.0 0.00 0.00 0.00 99 1014.2
20260905130726 77 92 0.0 0.0 0.00 0.00 0.00 99 1014.3
20260905130225 77 90 0.0 0.0 0.00 0.00 0.00 99 1013.9
20260905125721 77 27 0.0 0.0 0.00 0.00 0.00 99 1014.1
20260905125215 76 128 1.0 2.0 0.00 0.00 0.00 99 1014.0
20260905124712 76 274 0.0 1.0 0.00 0.00 0.00 99 1013.8
20260905124208 76 298 0.0 0.0 0.00 0.00 0.00 99 1013.9
20260905123702 76 193 0.0 0.0 0.00 0.00 0.00 99 1014.1
20260905123200 76 222 0.0 0.0 0.00 0.00 0.00 99 1014.0
20260905122659 76 265 0.0 0.0 0.00 0.00 0.00 99 1014.0
20260905122154 76 295 0.0 0.0 0.00 0.00 0.00 99 1013.9
20260905121648 75 211 0.0 0.0 0.00 0.00 0.00 99 1013.8
20260905121144 76 305 0.0 0.0 0.00 0.00 0.00 99 1013.7
20260905120643 75 158 0.0 0.0 0.00 0.00 0.00 99 1013.6
20260905120138 76 289 0.0 0.0 0.00 0.00 0.00 99 1013.4
20260905115632 76 240 0.0 0.0 0.00 0.00 0.00 99 1013.3
20260905115127 76 256 0.0 0.0 0.00 0.00 0.00 99 1013.2
20260905114626 75 258 0.0 0.0 0.00 0.00 0.00 99 1013.5
20260905114125 75 267 0.0 0.0 0.00 0.00 0.00 99 1013.4
20260905113620 75 289 0.0 0.0 0.00 0.00 0.00 99 1013.1
20260905113115 75 231 0.0 0.0 0.00 0.00 0.00 99 1013.2
20260905112609 75 231 0.0 0.0 0.00 0.00 0.00 99 1013.2
20260905112105 76 229 0.0 0.0 0.00 0.00 0.00 99 1013.2
20260905111555 75 232 0.0 0.0 0.00 0.00 0.00 99 1013.1